Home   Weather   Phnom Penh   Past weeks
Flag for Cambodia

Past Weather in Phnom Penh, Cambodia — Yesterday and Last 2 Weeks

Now
90 °F

Scattered clouds.


Feels Like: 103 °F
Forecast: 92 / 76 °F
Wind: 10 mph from Northeast

Location: Phnom-Penh / Pochentong

Current Time: Oct 19, 2019 at 3:14:19 pm

Latest Report: Oct 19, 2019 at 2:30 pm


Visibility: N/A

Pressure: 29.77 "Hg

Humidity: 67%

Dew Point: 77 °F

Location of Phnom PenhLocation

Past Weather in Phnom Penh — Graph

°F

Phnom Penh Temperature Yesterday

Maximum temperature yesterday: 91 °F (at 1:30 pm)
Minimum temperature yesterday: 75 °F (at 7:30 pm)
Average temperature yesterday: 83 °F

High & Low Weather Summary for the Past Weeks

 TemperatureHumidityPressure
High93 °F (Oct 11, 1:30 pm)100% (Oct 6, 2:30 am)29.95 "Hg (Oct 6, 2:30 am)
Low73 °F (Oct 12, 11:00 pm)52% (Oct 14, 3:00 pm)29.68 "Hg (Oct 5, 4:30 pm)
Average83 °F80%29.81 "Hg
* Reported Oct 4 2:00 pm — Oct 19 2:00 pm, Phnom Penh. Weather by CustomWeather, © 2019

Note: Actual official high and low records may vary slightly from our data, if they occured in-between our weather recording intervals... More about our weather records

Advertising

Phnom Penh Weather History for the Previous 24 Hours

Scroll right to see more
 ConditionsComfort  
Time TempWeatherWind HumidityBarometerVisibility
2:00 pm
Sat, Oct 19
88 °FScattered clouds.12 mph66%29.80 "HgN/A
1:30 pm90 °FScattered clouds.13 mph67%29.80 "HgN/A
1:00 pm88 °FScattered clouds.13 mph66%29.80 "HgN/A
12:30 pm88 °FScattered clouds.14 mph66%29.83 "HgN/A
12:00 pm88 °FScattered clouds.13 mph66%29.83 "HgN/A
11:30 am86 °FScattered clouds.14 mph70%29.86 "HgN/A
11:00 am86 °FScattered clouds.15 mph75%29.86 "HgN/A
10:30 am86 °FScattered clouds.13 mph75%29.89 "HgN/A
10:00 am86 °FScattered clouds.13 mph75%29.89 "HgN/A
9:30 am86 °FScattered clouds.10 mph75%29.89 "HgN/A
9:00 am84 °FScattered clouds.13 mph74%29.89 "HgN/A
8:30 am82 °FScattered clouds.5 mph89%29.92 "HgN/A
8:00 am81 °FScattered clouds.3 mph94%29.89 "HgN/A
7:30 am81 °FScattered clouds.1 mph94%29.92 "HgN/A
6:30 am77 °FScattered clouds.1 mph100%29.86 "HgN/A
6:00 am77 °FScattered clouds.1 mph100%29.86 "HgN/A
5:30 am77 °FPartly cloudy.2 mph100%29.83 "Hg6 mi
5:00 am77 °FPartly cloudy.2 mph100%29.83 "Hg6 mi
4:00 am77 °FPartly cloudy.1 mph100%29.83 "Hg6 mi
3:30 am77 °FPartly cloudy.3 mph100%29.83 "Hg6 mi
3:00 am77 °FPartly cloudy.1 mph100%29.83 "Hg6 mi
2:30 am77 °FPartly cloudy.2 mph100%29.83 "Hg6 mi
2:00 am77 °FPartly cloudy.5 mph100%29.83 "Hg6 mi
1:30 am77 °FPartly cloudy.3 mph100%29.83 "Hg6 mi
1:00 am77 °FPartly cloudy.3 mph100%29.83 "Hg6 mi
12:30 am77 °FPartly cloudy.6 mph100%29.86 "Hg6 mi
12:00 am77 °FPartly cloudy.5 mph100%29.86 "Hg6 mi
11:30 pm
Fri, Oct 18
77 °FPartly cloudy.3 mph100%29.86 "Hg5 mi
11:00 pm77 °FPartly cloudy.5 mph100%29.89 "Hg5 mi
10:30 pm77 °FPartly cloudy.7 mph100%29.89 "Hg5 mi
10:00 pm79 °FPartly cloudy.8 mph100%29.89 "Hg5 mi
9:30 pm79 °FPartly cloudy.5 mph100%29.89 "Hg5 mi
9:00 pm77 °FPartly cloudy.5 mph100%29.86 "Hg5 mi
8:30 pm77 °FThunderstorms. Partly cloudy.6 mph100%29.86 "Hg5 mi
8:00 pm77 °FThunderstorms. Partly cloudy.6 mph100%29.86 "Hg3 mi
7:30 pm75 °FThunderstorms. Partly cloudy.5 mph100%29.83 "Hg5 mi
7:00 pm79 °FStrong thunderstorms. Partly cloudy.18 mph94%29.83 "Hg1 mi
6:30 pm88 °FPassing clouds.1 mph66%29.80 "HgN/A
6:00 pm88 °FPassing clouds.5 mph66%29.77 "HgN/A
5:30 pm88 °FScattered clouds.6 mph66%29.77 "HgN/A
5:00 pm88 °FScattered clouds.6 mph66%29.77 "HgN/A
4:30 pm88 °FScattered clouds.6 mph66%29.77 "HgN/A
4:00 pm86 °FLight rain. Scattered clouds.13 mph70%29.74 "HgN/A
3:30 pm90 °FScattered clouds.7 mph59%29.77 "HgN/A
Weather by CustomWeather, © 2019

See weather overview